TimeEDT,TemperatureF,Dew PointF,Humidity,Sea Level PressureIn,VisibilityMPH,Wind Direction,Wind SpeedMPH,Gust SpeedMPH,PrecipitationIn,Events,Conditions,WindDirDegrees,DateUTC
12:12 AM,40.6,31.6,70,30.27,10.0,North,4.6,-,N/A,,Clear,360,2012-10-29 04:12:00
12:32 AM,40.3,31.8,72,30.27,10.0,North,4.6,-,N/A,,Clear,10,2012-10-29 04:32:00
12:52 AM,40.1,31.6,72,30.27,10.0,North,5.8,-,N/A,,Clear,360,2012-10-29 04:52:00
1:13 AM,40.1,31.8,72,30.27,10.0,North,4.6,-,N/A,,Clear,10,2012-10-29 05:13:00
1:32 AM,39.7,30.7,70,30.27,10.0,North,4.6,-,N/A,,Clear,10,2012-10-29 05:32:00
1:52 AM,39.2,29.5,68,30.27,10.0,NNE,5.8,-,N/A,,Clear,20,2012-10-29 05:52:00
2:13 AM,39.2,28.4,65,30.27,10.0,North,5.8,-,N/A,,Clear,10,2012-10-29 06:13:00
2:32 AM,38.5,27.5,65,30.26,10.0,North,5.8,-,N/A,,Clear,10,2012-10-29 06:32:00
2:52 AM,38.5,27.5,65,30.26,10.0,North,4.6,-,N/A,,Clear,10,2012-10-29 06:52:00
3:13 AM,37.9,27.1,65,30.26,10.0,North,5.8,-,N/A,,Clear,10,2012-10-29 07:13:00
3:32 AM,36.5,26.6,67,30.26,10.0,North,3.5,-,N/A,,Clear,10,2012-10-29 07:32:00
3:52 AM,38.1,26.4,63,30.26,10.0,North,5.8,-,N/A,,Clear,10,2012-10-29 07:52:00
4:12 AM,37.6,25.7,62,30.26,10.0,North,4.6,-,N/A,,Clear,360,2012-10-29 08:12:00
4:32 AM,35.8,25.0,65,30.26,10.0,North,4.6,-,N/A,,Clear,10,2012-10-29 08:32:00
4:53 AM,35.8,24.6,64,30.26,10.0,North,4.6,-,N/A,,Clear,10,2012-10-29 08:53:00
5:12 AM,36.5,24.6,62,30.26,10.0,North,5.8,-,N/A,,Clear,10,2012-10-29 09:12:00
5:32 AM,36.1,23.9,61,30.27,10.0,North,5.8,-,N/A,,Clear,10,2012-10-29 09:32:00
5:53 AM,36.9,23.4,58,30.27,10.0,North,5.8,-,N/A,,Clear,10,2012-10-29 09:53:00
6:12 AM,37.4,23.2,57,30.26,10.0,North,6.9,-,N/A,,Clear,10,2012-10-29 10:12:00
6:52 AM,37.4,22.8,56,30.26,10.0,North,5.8,-,N/A,,Clear,10,2012-10-29 10:52:00
7:12 AM,37.6,22.3,54,30.26,10.0,North,8.1,-,N/A,,Clear,10,2012-10-29 11:12:00
7:33 AM,37.8,22.3,54,30.27,10.0,North,6.9,-,N/A,,Clear,10,2012-10-29 11:33:00
7:52 AM,37.9,22.1,53,30.27,10.0,North,8.1,-,N/A,,Clear,10,2012-10-29 11:52:00
8:12 AM,38.5,21.9,51,30.27,10.0,North,8.1,-,N/A,,Clear,10,2012-10-29 12:12:00
8:33 AM,37.6,21.7,53,30.27,10.0,NNE,6.9,-,N/A,,Clear,20,2012-10-29 12:33:00
8:52 AM,37.6,21.9,53,30.28,10.0,NNE,6.9,-,N/A,,Clear,20,2012-10-29 12:52:00
9:12 AM,38.1,22.6,54,30.28,10.0,North,6.9,-,N/A,,Clear,10,2012-10-29 13:12:00
9:33 AM,39.2,23.0,52,30.28,10.0,North,12.7,16.1,N/A,,Clear,10,2012-10-29 13:33:00
9:52 AM,39.7,24.1,54,30.27,10.0,North,11.5,17.3,N/A,,Clear,10,2012-10-29 13:52:00
10:12 AM,40.1,24.8,54,30.27,10.0,North,9.2,-,N/A,,Clear,10,2012-10-29 14:12:00
10:32 AM,40.5,24.8,54,30.26,10.0,North,10.4,18.4,N/A,,Clear,10,2012-10-29 14:32:00
10:52 AM,41.2,25.5,54,30.27,10.0,North,11.5,17.3,N/A,,Clear,10,2012-10-29 14:52:00
11:13 AM,41.9,26.1,53,30.26,10.0,North,9.2,17.3,N/A,,Clear,350,2012-10-29 15:13:00
11:32 AM,42.3,25.9,52,30.25,10.0,North,9.2,-,N/A,,Clear,360,2012-10-29 15:32:00
11:52 AM,42.4,24.8,50,30.25,10.0,North,13.8,21.9,N/A,,Clear,10,2012-10-29 15:52:00
12:13 PM,43.3,24.8,48,30.24,10.0,North,10.4,24.2,N/A,,Clear,10,2012-10-29 16:13:00
12:32 PM,43.7,23.9,46,30.24,10.0,North,13.8,21.9,N/A,,Clear,10,2012-10-29 16:32:00
12:53 PM,43.9,23.5,45,30.23,10.0,North,15.0,23.0,N/A,,Clear,10,2012-10-29 16:53:00
1:13 PM,44.2,23.5,44,30.23,10.0,North,13.8,21.9,N/A,,Clear,10,2012-10-29 17:13:00
1:32 PM,45.1,24.3,44,30.22,10.0,North,6.9,16.1,N/A,,Clear,360,2012-10-29 17:32:00
2:12 PM,45.5,25.0,45,30.21,10.0,North,11.5,16.1,N/A,,Clear,10,2012-10-29 18:12:00
2:32 PM,45.3,25.5,46,30.20,10.0,North,10.4,18.4,N/A,,Clear,360,2012-10-29 18:32:00
2:53 PM,45.9,27.0,48,30.19,10.0,North,10.4,17.3,N/A,,Clear,350,2012-10-29 18:53:00
3:12 PM,45.7,25.5,45,30.19,10.0,North,10.4,20.7,N/A,,Clear,350,2012-10-29 19:12:00
3:32 PM,46.0,24.8,43,30.19,10.0,North,9.2,18.4,N/A,,Clear,350,2012-10-29 19:32:00
4:12 PM,45.5,24.1,43,30.18,10.0,North,12.7,23.0,N/A,,Clear,360,2012-10-29 20:12:00
4:33 PM,45.5,24.1,43,30.18,10.0,North,13.8,21.9,N/A,,Clear,350,2012-10-29 20:33:00
4:53 PM,45.5,23.5,42,30.17,10.0,NNW,10.4,23.0,N/A,,Clear,340,2012-10-29 20:53:00
5:12 PM,45.5,24.1,43,30.16,10.0,North,8.1,19.6,N/A,,Clear,360,2012-10-29 21:12:00
5:33 PM,45.1,24.4,44,30.16,10.0,North,11.5,19.6,N/A,,Clear,360,2012-10-29 21:33:00
5:53 PM,45.1,23.7,43,30.15,10.0,North,12.7,23.0,N/A,,Clear,360,2012-10-29 21:53:00
6:12 PM,45.0,23.7,43,30.15,10.0,North,11.5,21.9,N/A,,Clear,360,2012-10-29 22:12:00
6:33 PM,44.6,23.9,44,30.14,10.0,North,11.5,21.9,N/A,,Clear,360,2012-10-29 22:33:00
6:52 PM,44.2,23.9,45,30.14,10.0,North,15.0,26.5,N/A,,Clear,360,2012-10-29 22:52:00
7:13 PM,43.7,24.1,46,30.14,10.0,North,12.7,17.3,N/A,,Clear,10,2012-10-29 23:13:00
7:33 PM,43.7,25.5,49,30.13,10.0,North,11.5,23.0,N/A,,Clear,10,2012-10-29 23:33:00
7:52 PM,43.3,25.9,50,30.13,10.0,North,10.4,21.9,N/A,,Clear,360,2012-10-29 23:52:00
8:13 PM,43.7,26.4,51,30.12,10.0,North,10.4,23.0,N/A,,Clear,10,2012-10-30 00:13:00
8:33 PM,43.5,25.7,50,30.12,10.0,North,17.3,24.2,N/A,,Clear,360,2012-10-30 00:33:00
8:52 PM,43.5,25.0,48,30.11,10.0,North,10.4,20.7,N/A,,Clear,360,2012-10-30 00:52:00
9:13 PM,43.7,23.7,45,30.10,10.0,North,13.8,23.0,N/A,,Clear,10,2012-10-30 01:13:00
9:33 PM,43.7,22.1,42,30.10,10.0,North,15.0,24.2,N/A,,Clear,10,2012-10-30 01:33:00
9:52 PM,43.2,20.3,40,30.09,10.0,North,13.8,24.2,N/A,,Clear,360,2012-10-30 01:52:00
10:13 PM,42.8,21.0,42,30.08,10.0,North,12.7,18.4,N/A,,Clear,360,2012-10-30 02:13:00
10:33 PM,42.4,19.8,40,30.07,10.0,North,17.3,23.0,N/A,,Clear,10,2012-10-30 02:33:00
10:53 PM,42.4,19.8,40,30.06,10.0,North,10.4,21.9,N/A,,Clear,10,2012-10-30 02:53:00
11:13 PM,42.4,19.4,40,30.04,10.0,North,13.8,28.8,N/A,,Clear,10,2012-10-30 03:13:00
11:32 PM,42.3,19.4,40,30.03,10.0,North,11.5,28.8,N/A,,Clear,10,2012-10-30 03:32:00
11:52 PM,41.9,19.0,40,30.02,10.0,North,10.4,27.6,N/A,,Clear,360,2012-10-30 03:52:00